Location: Br�ttisellen
(47.4227°N, 8.6287°E)
Time: 22:39:07
(UTC+00:00)

Cosmos 1833 Rocket - Pass Details

Date: 09 April 2020
Orbit: 834 x 838 km, 71.0° (Epoch: 02 June)

Event Time Altitude Azimuth Distance (km) Brightness Sun altitude
Exits shadow 22:20:56 31° 279° (W) 1,429 4.0 -32.7°
Maximum altitude 22:22:18 36° 308° (NW) 1,317 4.0 -32.7°
Drops below altitude 10° 22:27:28 10° 14° (NNE) 2,460 5.7 -33.0°
Sets 22:30:08 0° 24° (NNE) 3,398 6.5 -33.1°
